Wind_Speed
3 6 8 9 11 12 14 16 18 21 22 22 23 24 25 24 24 23 23 25 26 26 25 24 24 23 23 23 20 24 23 30 22 38 32 29 31 33 33 35 35 39 35
2 5 7 9 11 12 14 16 19 20 22 23 25 24 25 25 25 27 28 27 27 28 28 27 26 26 26 24 24 21 23 25 23 37 30 20 26 27 32 34 38 43 40
1 3 6 8 9 12 14 17 19 20 21 23 24 25 24 24 25 29 31 31 30 29 30 30 29 28 28 28 27 24 25 22 16 20 27 13 13 20 35 39 38 40 45
2 2 4 7 9 11 13 15 17 19 21 23 23 24 23 25 26 28 30 32 32 30 28 30 31 31 30 29 29 27 25 24 30 22 29 31 28 17 12 31 38 39 42
2 1 4 6 8 11 13 15 16 18 19 20 21 22 22 22 25 28 28 30 30 31 30 28 29 30 31 31 30 30 30 28 27 28 25 17 30 27 24 18 31 34 37
3 1 4 7 9 11 14 16 17 18 19 20 20 21 23 24 26 26 29 28 29 31 30 29 29 30 30 31 32 32 32 34 33 31 30 27 23 22 34 32 25 32 35
4 3 4 7 9 12 14 16 19 20 21 21 20 21 21 23 24 26 26 28 31 30 31 30 31 31 31 32 33 35 35 35 37 35 34 34 34 26 25 40 38 25 28
6 5 7 9 10 13 15 17 18 19 20 21 22 21 22 21 23 24 27 29 28 29 29 32 31 32 32 33 33 35 37 37 37 38 37 38 37 37 30 25 38 36 31
8 8 9 10 13 15 17 18 19 21 21 21 21 22 22 23 25 26 26 27 28 28 29 31 33 34 33 33 33 35 37 37 38 39 41 40 40 37 35 31 30 45 31
10 10 11 12 13 15 16 17 18 20 21 21 22 23 24 24 26 26 26 26 28 29 30 31 33 34 34 32 31 33 35 37 38 38 40 41 41 41 39 37 32 32 39
10 11 12 13 14 15 16 17 18 20 21 22 24 25 25 24 25 25 25 27 29 30 31 32 33 34 34 33 32 33 33 35 37 37 38 42 41 42 43 41 43 31 42
12 11 11 12 13 14 16 17 18 20 21 23 25 26 26 26 25 25 26 27 30 31 31 33 33 34 34 34 33 35 34 34 37 37 35 38 39 42 42 44 43 45 27
8 7 8 11 14 15 16 18 19 21 22 24 26 27 27 28 28 28 28 29 30 32 32 32 35 36 36 36 35 35 35 37 37 36 37 38 36 40 42 44 46 46 44
6 7 8 12 15 17 18 19 20 21 23 25 26 28 29 30 31 30 30 30 31 33 34 34 35 36 37 37 37 34 37 37 38 38 39 38 38 39 41 42 45 45 47
6 8 11 13 16 18 19 20 21 22 23 26 27 28 29 31 31 31 32 32 32 32 33 35 36 36 37 38 36 35 36 38 39 40 41 40 41 39 39 40 45 40 43
8 11 13 15 18 20 22 23 23 23 24 26 27 28 29 31 31 32 33 33 33 32 32 35 37 39 37 34 34 35 38 40 41 42 43 43 41 42 40 42 43 45 48
12 14 16 19 20 21 22 25 26 26 26 27 28 28 29 32 33 32 32 33 34 34 34 34 35 36 39 35 34 35 37 40 42 44 44 45 46 40 43 42 40 42 49
16 18 20 21 21 21 22 25 25 26 27 28 29 29 30 33 34 33 32 32 33 34 34 34 36 38 37 33 34 34 36 40 42 44 46 46 46 46 44 44 44 44 46
21 21 21 23 23 22 23 26 26 27 27 28 29 30 31 33 34 34 32 32 34 35 36 35 34 33 36 33 34 34 37 40 43 44 46 46 47 45 42 43 48 49 53
21 24 23 23 24 23 23 26 27 28 28 29 30 31 31 33 34 33 32 33 32 36 37 36 32 32 34 31 32 32 34 41 44 48 47 43 44 44 42 44 47 48 56
22 23 23 25 25 24 25 27 28 28 29 30 31 31 31 32 33 32 32 32 33 35 36 36 33 34 33 33 32 32 34 39 45 48 49 46 45 44 44 46 51 58 52
21 21 23 24 24 23 24 28 29 29 30 31 31 32 32 31 31 32 34 32 33 35 36 36 38 40 38 34 33 33 33 36 43 49 52 55 50 48 48 48 49 52 51
22 22 23 26 24 23 24 28 30 30 31 32 32 32 33 31 30 33 34 35 34 34 36 39 40 44 42 40 36 34 36 44 41 47 53 53 55 55 54 52 55 55 52
23 23 23 25 25 25 24 27 28 29 31 32 32 32 31 30 30 33 33 35 34 35 38 41 42 44 44 44 43 45 52 44 45 46 49 50 54 56 56 55 57 58 57
24 24 25 25 27 26 26 27 27 28 30 31 31 30 30 28 34 31 35 34 31 30 36 39 40 41 44 44 43 47 46 44 45 46 47 47 47 51 53 54 58 58 57
27 27 26 28 30 31 33 29 27 27 29 31 29 30 28 30 32 35 41 32 31 30 31 32 32 37 38 41 45 47 43 42 38 41 43 44 44 45 50 53 54 56 58
Wind_Direction
62 37 26 22 16 11 10 8 5 2 357 354 350 345 342 336 329 325 322 319 314 311 309 305 302 300 296 282 289 279 249 236 248 237 242 236 240 244 241 236 231 232 232
93 39 33 27 21 13 10 7 4 360 356 353 350 346 342 337 333 326 323 321 318 314 310 306 301 300 294 293 286 283 282 263 261 240 246 232 231 231 237 240 238 234 233
128 49 35 25 15 9 5 2 359 355 352 347 343 338 336 329 326 325 323 321 319 316 312 307 303 297 296 292 288 292 273 283 246 228 223 199 217 236 246 242 240 236 233
139 64 33 16 7 360 357 355 352 349 346 343 341 339 336 330 328 325 321 318 319 315 311 306 302 298 293 288 287 285 281 278 272 260 231 239 238 217 243 239 241 239 231
161 50 8 347 348 349 346 346 345 342 339 337 336 335 330 327 324 322 320 318 314 312 312 307 300 296 292 288 283 280 279 274 272 268 262 255 251 216 222 238 221 229 234
199 294 338 337 337 338 337 337 337 337 336 335 333 330 327 324 323 321 318 317 314 312 310 306 301 297 293 288 283 278 274 276 272 268 265 255 260 259 235 217 232 224 233
217 257 310 323 329 334 337 335 335 334 332 332 329 326 324 321 319 316 315 312 312 310 308 305 302 297 293 288 286 281 275 271 273 270 268 263 255 246 253 239 226 244 226
228 256 285 309 321 326 327 326 327 327 327 327 326 324 321 318 314 312 309 308 305 305 303 302 299 297 293 290 286 282 278 275 270 269 266 266 260 256 251 247 245 233 235
228 254 278 299 309 314 319 322 323 321 323 323 322 320 319 316 314 310 306 304 302 301 298 297 296 295 292 290 288 284 280 278 272 268 267 265 262 257 253 246 242 241 224
234 252 272 285 297 306 312 316 316 315 317 318 318 317 317 316 312 309 305 302 300 299 297 296 295 292 291 288 287 284 282 279 276 273 268 264 261 260 255 245 250 243 232
229 251 269 284 297 306 310 312 313 313 315 315 317 317 317 315 311 307 304 301 299 297 295 294 292 291 288 287 285 282 281 280 279 276 275 267 265 260 257 254 248 241 243
233 254 274 288 295 304 309 313 315 314 316 317 318 319 319 318 312 307 304 301 298 297 295 294 290 289 287 284 282 280 280 277 277 275 273 270 267 261 258 255 251 250 239
238 253 266 286 300 306 311 314 317 317 317 317 320 320 321 320 315 310 306 302 300 298 295 291 288 288 286 283 278 276 277 276 276 274 271 270 268 265 260 256 254 249 244
241 277 288 300 305 309 313 315 317 318 317 318 320 322 321 320 317 313 308 304 302 298 297 294 290 287 285 282 280 276 275 275 274 272 269 268 267 266 263 260 254 251 252
274 296 305 308 306 308 312 313 315 319 319 318 321 322 320 321 319 316 311 308 305 301 299 297 294 291 287 283 282 281 280 278 280 281 280 275 268 264 262 262 257 254 255
309 307 308 306 308 312 315 316 318 320 320 318 320 320 320 322 322 318 314 313 311 307 302 297 294 293 289 284 279 275 276 278 278 279 278 276 272 269 264 260 259 253 248
310 306 308 309 311 314 316 317 319 320 318 318 320 321 321 325 323 319 317 317 316 314 306 302 299 297 293 288 283 279 276 276 277 279 278 278 275 269 267 264 260 258 252
306 307 309 309 310 313 314 313 317 318 318 319 319 323 324 323 323 321 319 318 319 317 315 308 304 297 295 292 288 285 281 277 276 276 278 276 274 274 270 268 265 259 257
306 306 308 309 311 314 315 315 318 317 318 318 320 324 325 323 325 324 321 320 322 322 319 310 304 301 298 296 292 290 286 282 280 279 281 277 275 272 266 262 262 262 256
305 306 309 310 311 312 311 311 315 316 319 318 319 323 324 325 326 324 324 322 324 324 318 316 314 306 301 301 296 292 290 287 286 286 284 274 271 269 264 258 257 256 256
305 308 303 306 309 313 312 311 314 316 317 318 317 320 324 326 327 326 325 326 325 323 324 323 319 315 315 310 302 296 291 288 289 288 284 277 276 271 264 258 255 253 255
304 304 304 306 309 313 311 308 311 317 315 314 315 321 324 325 329 328 330 326 328 325 327 325 323 325 318 312 306 301 295 293 290 284 283 280 277 273 267 260 255 255 253
302 303 303 306 309 308 306 305 309 315 316 315 317 321 323 324 331 326 328 331 330 330 324 324 319 317 319 318 313 307 304 304 290 284 284 280 276 272 268 262 256 251 249
299 300 301 302 302 303 303 301 306 309 311 313 316 320 324 323 322 327 332 329 329 327 324 320 317 318 319 319 319 316 316 306 301 295 289 281 277 272 267 262 255 248 244
297 297 296 297 297 300 298 298 306 310 310 311 313 320 318 324 320 326 328 326 326 320 317 315 317 317 316 316 315 315 315 312 306 301 293 286 277 269 261 253 248 241 237
293 294 292 292 292 294 300 305 308 309 308 309 311 315 317 318 322 323 329 333 328 322 321 323 321 319 318 319 324 323 322 319 315 311 303 293 287 271 262 249 242 235 228
Height
1561 1560 1560 1559 1558 1556 1555 1553 1553 1552 1550 1549 1547 1545 1544 1542 1540 1538 1537 1534 1532 1529 1527 1525 1524 1523 1520 1521 1512 1516 1514 1516 1518 1514 1522 1524 1525 1526 1529 1532 1534 1535 1536
1560 1560 1560 1559 1558 1557 1555 1553 1552 1551 1550 1549 1547 1546 1544 1541 1539 1537 1535 1533 1530 1527 1524 1521 1520 1518 1517 1515 1513 1513 1509 1511 1515 1514 1515 1518 1518 1519 1522 1524 1526 1527 1529
1559 1559 1559 1558 1557 1556 1554 1553 1551 1550 1548 1547 1546 1544 1542 1540 1537 1534 1531 1528 1527 1524 1521 1519 1516 1514 1513 1512 1512 1508 1507 1506 1507 1507 1506 1506 1511 1512 1514 1516 1518 1520 1520
1557 1557 1557 1557 1556 1555 1553 1552 1551 1549 1547 1544 1543 1541 1539 1536 1533 1530 1528 1524 1522 1520 1518 1516 1513 1510 1508 1508 1506 1505 1504 1501 1502 1500 1501 1500 1499 1503 1507 1508 1509 1511 1512
1555 1556 1555 1554 1554 1553 1552 1550 1549 1547 1545 1543 1541 1539 1537 1534 1530 1528 1524 1522 1519 1516 1514 1512 1509 1506 1503 1502 1500 1499 1498 1498 1500 1498 1496 1493 1496 1492 1500 1501 1503 1503 1503
1553 1553 1553 1552 1551 1550 1549 1547 1545 1544 1542 1540 1539 1537 1534 1530 1527 1524 1520 1517 1514 1512 1509 1507 1504 1501 1499 1496 1494 1493 1492 1491 1491 1490 1490 1488 1494 1490 1490 1491 1496 1494 1494
1551 1551 1551 1550 1549 1547 1545 1544 1542 1540 1538 1536 1535 1533 1530 1527 1524 1521 1517 1513 1509 1506 1504 1501 1498 1496 1493 1490 1487 1485 1484 1483 1482 1483 1483 1484 1484 1483 1486 1484 1486 1489 1490
1548 1548 1547 1546 1545 1543 1542 1541 1539 1537 1535 1533 1530 1528 1526 1523 1520 1517 1513 1509 1505 1502 1499 1495 1492 1489 1487 1484 1481 1478 1475 1475 1473 1473 1475 1475 1476 1476 1475 1478 1480 1479 1483
1544 1544 1544 1543 1542 1541 1540 1538 1536 1534 1531 1529 1527 1524 1522 1519 1515 1512 1508 1504 1501 1497 1493 1489 1485 1482 1479 1476 1474 1470 1467 1466 1464 1464 1464 1465 1464 1466 1468 1469 1470 1474 1471
1541 1541 1541 1540 1540 1538 1536 1534 1532 1530 1528 1525 1522 1520 1517 1513 1510 1506 1502 1499 1495 1491 1487 1483 1479 1475 1471 1469 1467 1463 1460 1457 1456 1454 1454 1454 1455 1456 1458 1460 1461 1461 1461
1537 1538 1537 1537 1535 1534 1533 1531 1529 1526 1523 1521 1518 1515 1512 1508 1504 1501 1497 1493 1489 1485 1480 1476 1471 1467 1464 1461 1458 1455 1453 1450 1447 1447 1445 1443 1446 1445 1447 1449 1451 1451 1455
1533 1533 1533 1533 1531 1530 1529 1527 1525 1522 1519 1516 1513 1509 1506 1502 1498 1495 1491 1486 1481 1477 1473 1468 1464 1460 1456 1452 1450 1447 1445 1442 1439 1437 1437 1434 1435 1435 1436 1438 1439 1440 1442
1532 1530 1530 1528 1526 1525 1524 1522 1520 1517 1514 1511 1507 1504 1500 1495 1491 1487 1483 1479 1474 1469 1464 1461 1456 1452 1448 1444 1441 1438 1436 1433 1431 1429 1427 1426 1426 1425 1426 1428 1428 1430 1431
1527 1529 1525 1523 1522 1520 1519 1517 1515 1513 1509 1505 1502 1498 1494 1489 1485 1480 1475 1471 1466 1461 1456 1451 1447 1443 1439 1435 1431 1429 1426 1424 1421 1419 1417 1416 1415 1415 1416 1417 1417 1418 1419
1525 1524 1522 1519 1517 1516 1514 1512 1510 1507 1504 1500 1497 1493 1488 1484 1479 1473 1468 1462 1458 1453 1447 1442 1437 1433 1430 1425 1423 1420 1418 1415 1412 1409 1406 1404 1403 1404 1405 1405 1405 1408 1409
1521 1520 1519 1516 1513 1511 1509 1507 1504 1501 1498 1495 1491 1488 1483 1478 1473 1467 1461 1455 1449 1444 1439 1433 1428 1422 1418 1416 1414 1412 1409 1405 1402 1398 1396 1394 1393 1391 1392 1392 1393 1395 1396
1519 1518 1515 1512 1510 1507 1504 1501 1498 1496 1492 1489 1486 1482 1477 1471 1466 1460 1454 1448 1442 1436 1430 1424 1419 1412 1408 1405 1403 1401 1399 1395 1391 1388 1386 1383 1380 1381 1379 1380 1381 1380 1380
1517 1514 1511 1509 1506 1503 1499 1496 1494 1490 1487 1483 1479 1475 1470 1465 1459 1453 1447 1441 1435 1428 1421 1415 1410 1404 1397 1395 1392 1390 1387 1383 1380 1377 1373 1371 1368 1368 1368 1367 1365 1364 1365
1513 1510 1508 1504 1501 1498 1494 1490 1488 1486 1482 1478 1474 1469 1465 1458 1452 1445 1439 1434 1427 1420 1413 1407 1400 1395 1388 1385 1382 1379 1375 1369 1365 1363 1360 1357 1354 1353 1355 1355 1350 1350 1346
1510 1506 1503 1499 1495 1492 1489 1485 1482 1480 1476 1472 1468 1464 1459 1452 1445 1439 1432 1427 1420 1412 1406 1398 1392 1386 1380 1375 1372 1369 1364 1357 1352 1348 1344 1343 1341 1338 1341 1340 1338 1336 1328
1506 1503 1499 1494 1490 1487 1483 1479 1476 1474 1471 1466 1462 1457 1452 1446 1440 1432 1427 1420 1413 1406 1398 1391 1384 1378 1373 1367 1364 1360 1355 1348 1341 1334 1328 1326 1324 1324 1324 1325 1323 1317 1324
1502 1499 1494 1490 1486 1483 1480 1475 1471 1469 1465 1460 1455 1451 1446 1440 1433 1427 1419 1414 1407 1399 1391 1384 1376 1369 1364 1359 1354 1349 1345 1340 1332 1321 1314 1308 1308 1307 1306 1307 1305 1305 1314
1497 1493 1490 1485 1482 1479 1476 1470 1466 1463 1458 1454 1449 1444 1439 1434 1428 1423 1414 1406 1401 1393 1385 1378 1370 1362 1355 1349 1343 1338 1332 1325 1317 1309 1300 1294 1289 1287 1287 1287 1287 1292 1295
1492 1488 1484 1480 1476 1474 1471 1467 1462 1458 1453 1447 1443 1438 1432 1428 1423 1417 1410 1403 1395 1388 1381 1374 1366 1357 1348 1340 1333 1326 1317 1310 1301 1292 1282 1276 1270 1266 1265 1265 1266 1268 1272
1485 1482 1478 1474 1471 1468 1465 1461 1457 1452 1447 1442 1437 1432 1428 1422 1417 1411 1405 1398 1391 1387 1379 1371 1362 1353 1343 1334 1328 1318 1307 1297 1287 1276 1265 1256 1250 1242 1239 1239 1240 1243 1250
1478 1475 1472 1468 1463 1460 1456 1454 1451 1446 1441 1435 1431 1427 1423 1418 1413 1406 1396 1392 1386 1379 1373 1365 1358 1347 1338 1328 1317 1306 1295 1284 1273 1261 1250 1239 1231 1223 1218 1216 1215 1218 1225